Zurück zum Katalog

FENGYUN 1C DEB

AktivSSO
NORAD 31412·DEBRIS·🇨🇳 China

Gestartet May 10, 1999 von Taiyuan Satellite Launch Center

Loading…

Nächste Überflüge (nächste 24 Stunden)

TLE

AlterndSource: Space-Track

Epoche: Sep 11, 2026, 06:37 UTC

1 31412U 99025BSY 26254.27578025  .00001591  00000-0  87932-3 0  9999
2 31412  98.5569 190.1692 0080760 280.1243  79.0827 14.11150026648343

Verfolge FENGYUN 1C DEB in Echtzeit mit AllMySat

Download on the App Store